| time (UTC) | temp F | wind direction | speed MPH | gust MPH | rain 1hr in | rain 24hr in | rain mn in | humidity % | barometer mb |
| 20260505074830 | 60 | 182 | 2.0 | 4.0 | 0.00 | 0.00 | 0.00 | 69 | 1011.2 |
| 20260505073823 | 60 | 182 | 2.0 | 4.0 | 0.00 | 0.00 | 0.00 | 69 | 1011.1 |
| 20260505072832 | 60 | 205 | 0.0 | 2.0 | 0.00 | 0.00 | 0.00 | 69 | 1011.0 |
| 20260505071823 | 60 | 205 | 0.0 | 0.0 | 0.00 | 0.00 | 0.00 | 69 | 1010.9 |
| 20260505070816 | 61 | 205 | 0.0 | 0.0 | 0.00 | 0.00 | 0.00 | 69 | 1010.9 |
| 20260505065821 | 61 | 205 | 0.0 | 0.0 | 0.00 | 0.00 | 0.00 | 69 | 1010.9 |
| 20260505064814 | 61 | 205 | 0.0 | 0.0 | 0.00 | 0.00 | 0.00 | 68 | 1010.9 |
| 20260505063826 | 61 | 205 | 0.0 | 1.0 | 0.00 | 0.00 | 0.00 | 68 | 1011.0 |
| 20260505062839 | 61 | 205 | 0.0 | 1.0 | 0.00 | 0.00 | 0.00 | 69 | 1011.1 |
| 20260505061829 | 61 | 205 | 0.0 | 3.0 | 0.00 | 0.00 | 0.00 | 69 | 1011.2 |
| 20260505060841 | 61 | 204 | 0.0 | 2.0 | 0.00 | 0.00 | 0.00 | 67 | 1011.3 |
| 20260505055856 | 61 | 204 | 1.0 | 3.0 | 0.00 | 0.00 | 0.00 | 67 | 1011.3 |
| 20260505054817 | 62 | 196 | 1.0 | 2.0 | 0.00 | 0.00 | 0.00 | 66 | 1011.2 |
| 20260505053827 | 62 | 176 | 0.0 | 0.0 | 0.00 | 0.00 | 0.00 | 66 | 1011.2 |
| 20260505052818 | 61 | 178 | 0.0 | 0.0 | 0.00 | 0.00 | 0.00 | 66 | 1011.1 |
| 20260505051825 | 61 | 177 | 0.0 | 0.0 | 0.00 | 0.00 | 0.00 | 65 | 1011.1 |
| 20260505050817 | 61 | 175 | 0.0 | 0.0 | 0.00 | 0.00 | 0.00 | 65 | 1011.1 |
| 20260505040819 | 62 | 166 | 2.0 | 5.0 | 0.00 | 0.00 | 0.00 | 62 | 1010.9 |
| 20260505035824 | 62 | 161 | 3.0 | 5.0 | 0.00 | 0.00 | 0.00 | 62 | 1010.8 |
| 20260505034815 | 62 | 178 | 2.0 | 4.0 | 0.00 | 0.00 | 0.00 | 62 | 1010.7 |
| 20260505033826 | 62 | 175 | 2.0 | 4.0 | 0.00 | 0.00 | 0.00 | 62 | 1010.7 |
| 20260505032838 | 62 | 180 | 2.0 | 4.0 | 0.00 | 0.00 | 0.00 | 62 | 1010.7 |
| 20260505031829 | 62 | 180 | 2.0 | 3.0 | 0.00 | 0.00 | 0.00 | 62 | 1010.7 |
| 20260505030822 | 62 | 178 | 2.0 | 3.0 | 0.00 | 0.00 | 0.00 | 62 | 1010.8 |
| 20260505025826 | 62 | 178 | 2.0 | 3.0 | 0.00 | 0.00 | 0.00 | 63 | 1010.8 |
| 20260505024817 | 62 | 178 | 1.0 | 4.0 | 0.00 | 0.00 | 0.00 | 63 | 1010.9 |
| 20260505023828 | 61 | 178 | 2.0 | 4.0 | 0.00 | 0.00 | 0.00 | 64 | 1010.9 |
| 20260505022840 | 61 | 177 | 2.0 | 3.0 | 0.00 | 0.00 | 0.00 | 64 | 1010.8 |
| 20260505021832 | 61 | 178 | 2.0 | 3.0 | 0.00 | 0.00 | 0.00 | 63 | 1010.8 |
| 20260505020846 | 61 | 179 | 2.0 | 4.0 | 0.00 | 0.00 | 0.00 | 63 | 1010.8 |
| 20260505015826 | 61 | 180 | 2.0 | 4.0 | 0.00 | 0.00 | 0.00 | 63 | 1010.9 |
| 20260505014819 | 61 | 180 | 2.0 | 3.0 | 0.00 | 0.00 | 0.00 | 61 | 1010.9 |
| 20260505013831 | 62 | 181 | 2.0 | 3.0 | 0.00 | 0.00 | 0.00 | 60 | 1011.0 |
| 20260505012815 | 63 | 181 | 2.0 | 4.0 | 0.00 | 0.00 | 0.00 | 59 | 1010.9 |
| 20260505011827 | 63 | 182 | 3.0 | 4.0 | 0.00 | 0.00 | 0.00 | 58 | 1010.7 |
| 20260505010850 | 63 | 182 | 2.0 | 5.0 | 0.00 | 0.00 | 0.00 | 57 | 1010.5 |
| 20260505005817 | 63 | 182 | 3.0 | 5.0 | 0.00 | 0.00 | 0.00 | 57 | 1010.4 |
| 20260505004828 | 64 | 178 | 3.0 | 5.0 | 0.00 | 0.00 | 0.00 | 57 | 1010.4 |
| 20260505003840 | 64 | 179 | 3.0 | 5.0 | 0.00 | 0.00 | 0.00 | 56 | 1010.4 |
| 20260505002822 | 64 | 176 | 3.0 | 5.0 | 0.00 | 0.00 | 0.00 | 56 | 1010.4 |
| 20260505001815 | 65 | 178 | 3.0 | 6.0 | 0.00 | 0.00 | 0.00 | 55 | 1010.3 |
| 20260505000828 | 65 | 186 | 4.0 | 5.0 | 0.00 | 0.00 | 0.00 | 55 | 1010.4 |
| 20260504235834 | 65 | 178 | 4.0 | 6.0 | 0.00 | 0.00 | 0.00 | 54 | 1010.2 |
| 20260504234834 | 66 | 171 | 4.0 | 6.0 | 0.00 | 0.00 | 0.00 | 54 | 1010.2 |
| 20260504233818 | 66 | 176 | 3.0 | 6.0 | 0.00 | 0.00 | 0.00 | 53 | 1010.2 |
| 20260504232830 | 67 | 178 | 4.0 | 6.0 | 0.00 | 0.00 | 0.00 | 52 | 1010.2 |
| 20260504231821 | 68 | 175 | 4.0 | 7.0 | 0.00 | 0.00 | 0.00 | 51 | 1010.2 |
| 20260504230853 | 68 | 171 | 4.0 | 6.0 | 0.00 | 0.00 | 0.00 | 51 | 1010.2 |
| 20260504225817 | 69 | 165 | 4.0 | 5.0 | 0.00 | 0.00 | 0.00 | 50 | 1010.2 |
| 20260504224826 | 69 | 164 | 5.0 | 6.0 | 0.00 | 0.00 | 0.00 | 49 | 1010.2 |
| 20260504223818 | 70 | 167 | 4.0 | 6.0 | 0.00 | 0.00 | 0.00 | 49 | 1010.4 |
| 20260504222827 | 71 | 164 | 5.0 | 8.0 | 0.00 | 0.00 | 0.00 | 46 | 1010.2 |
| 20260504221821 | 72 | 162 | 5.0 | 7.0 | 0.00 | 0.00 | 0.00 | 46 | 1010.2 |
| 20260504220814 | 72 | 200 | 4.0 | 7.0 | 0.00 | 0.00 | 0.00 | 45 | 1010.2 |
| 20260504215821 | 73 | 194 | 2.0 | 5.0 | 0.00 | 0.00 | 0.00 | 43 | 1010.1 |
| 20260504214813 | 73 | 150 | 0.0 | 6.0 | 0.00 | 0.00 | 0.00 | 42 | 1010.2 |
| 20260504213828 | 73 | 139 | 4.0 | 8.0 | 0.00 | 0.00 | 0.00 | 44 | 1010.2 |
| 20260504212815 | 73 | 68 | 1.0 | 6.0 | 0.00 | 0.00 | 0.00 | 43 | 1010.2 |
| 20260504211837 | 73 | 195 | 2.0 | 7.0 | 0.00 | 0.00 | 0.00 | 43 | 1010.2 |
| 20260504210823 | 73 | 191 | 3.0 | 7.0 | 0.00 | 0.00 | 0.00 | 42 | 1010.2 |
| 20260504205838 | 73 | 234 | 4.0 | 7.0 | 0.00 | 0.00 | 0.00 | 43 | 1010.1 |
| 20260504204820 | 73 | 209 | 4.0 | 8.0 | 0.00 | 0.00 | 0.00 | 43 | 1010.2 |
| 20260504203832 | 73 | 173 | 3.0 | 7.0 | 0.00 | 0.00 | 0.00 | 44 | 1010.3 |
| 20260504202843 | 73 | 180 | 2.0 | 6.0 | 0.00 | 0.00 | 0.00 | 42 | 1010.5 |
| 20260504201814 | 73 | 194 | 4.0 | 6.0 | 0.00 | 0.00 | 0.00 | 41 | 1010.5 |
| 20260504200826 | 73 | 192 | 3.0 | 8.0 | 0.00 | 0.00 | 0.00 | 44 | 1010.7 |
| 20260504195831 | 73 | 216 | 3.0 | 11.0 | 0.00 | 0.00 | 0.00 | 43 | 1010.8 |
| 20260504194822 | 72 | 237 | 2.0 | 7.0 | 0.00 | 0.00 | 0.00 | 44 | 1010.9 |
| 20260504193815 | 72 | 190 | 3.0 | 11.0 | 0.00 | 0.00 | 0.00 | 43 | 1011.1 |
| 20260504192828 | 72 | 187 | 2.0 | 9.0 | 0.00 | 0.00 | 0.00 | 46 | 1011.3 |
| 20260504191844 | 72 | 218 | 4.0 | 10.0 | 0.00 | 0.00 | 0.00 | 43 | 1011.6 |
| 20260504190815 | 72 | 175 | 2.0 | 7.0 | 0.00 | 0.00 | 0.00 | 42 | 1011.7 |
| 20260504185822 | 71 | 161 | 3.0 | 11.0 | 0.00 | 0.00 | 0.00 | 42 | 1011.9 |
| 20260504184817 | 71 | 169 | 5.0 | 11.0 | 0.00 | 0.00 | 0.00 | 43 | 1012.0 |
| 20260504183846 | 71 | 116 | 4.0 | 10.0 | 0.00 | 0.00 | 0.00 | 44 | 1012.1 |
| 20260504182818 | 71 | 188 | 3.0 | 9.0 | 0.00 | 0.00 | 0.00 | 44 | 1012.2 |
| 20260504181816 | 71 | 216 | 3.0 | 8.0 | 0.00 | 0.00 | 0.00 | 43 | 1012.3 |
| 20260504180826 | 70 | 201 | 4.0 | 8.0 | 0.00 | 0.00 | 0.00 | 46 | 1012.3 |
| 20260504175831 | 70 | 186 | 3.0 | 9.0 | 0.00 | 0.00 | 0.00 | 44 | 1012.4 |
| 20260504174823 | 69 | 173 | 4.0 | 7.0 | 0.00 | 0.00 | 0.00 | 45 | 1012.5 |
| 20260504173835 | 69 | 191 | 3.0 | 7.0 | 0.00 | 0.00 | 0.00 | 47 | 1012.6 |
| 20260504172821 | 68 | 173 | 4.0 | 8.0 | 0.00 | 0.00 | 0.00 | 46 | 1012.7 |
| 20260504171835 | 68 | 194 | 3.0 | 10.0 | 0.00 | 0.00 | 0.00 | 45 | 1012.8 |
| 20260504170839 | 68 | 222 | 3.0 | 6.0 | 0.00 | 0.00 | 0.00 | 44 | 1013.0 |
| 20260504150817 | 63 | 123 | 2.0 | 8.0 | 0.00 | 0.00 | 0.00 | 48 | 1014.3 |
| 20260504140819 | 58 | 181 | 1.0 | 5.0 | 0.00 | 0.00 | 0.00 | 58 | 1014.7 |
| 20260504130820 | 53 | 191 | 2.0 | 5.0 | 0.00 | 0.00 | 0.00 | 65 | 1014.9 |
| 20260504081818 | 45 | 360 | 0.0 | 0.0 | 0.00 | 0.00 | 0.00 | 69 | 1015.6 |
| 20260504080830 | 45 | 360 | 0.0 | 0.0 | 0.00 | 0.00 | 0.00 | 68 | 1015.6 |